Regional Weather Roundup
Issued by NWS Wakefield, VA

Current Version | Previous Version | Text Only | Print | Product List | Glossary On
Versions: 1 2 3 4 5 6 7 8 9 10 11 12 13 14 15 16 17 18 19 20 21 22 23 24 25 26 27
000
ASUS41 KAKQ 030915
RWRAKQ

REGIONAL WEATHER ROUNDUP
NATIONAL WEATHER SERVICE WAKEFIELD VA
500 AM EDT TUE MAY 03 2016

Note: "fair" indicates few or no clouds below 12,000 feet with no
significant weather and/or obstructions to visibility. * = Denotes
station may not report precipitation (e.g., rain,snow,etc.),
thunder or fog.

VAZ042-051-052>054-056-031000-
NORTHERN VIRGINIA

CITY           SKY/WX    TMP DP  RH WIND       PRES   REMARKS
WASH NATIONAL  LGT RAIN  62  61  96 NE3       29.80S FOG
DULLES         CLOUDY    62  61  96 SW5       29.80S
FORT BELVOIR   FAIR      61  61 100 CALM      29.80R FOG
QUANTICO       LGT RAIN  64  62  93 CALM      29.81R
FREDERICKSBRG* MOCLDY    63  63 100 CALM      29.80S
STAFFORD*      RAIN      62  61  96 W3        29.84S
WARRENTON      CLOUDY    63  59  86 CALM      29.80S
CULPEPER*      CLOUDY    62  62  99 CALM      29.81F FOG
MANASSAS*      CLOUDY    63  63 100 CALM      29.81S
LEESBURG*      CLOUDY    63  63 100 CALM      29.81F FOG
WINCHESTER     CLOUDY    61  61 100 SW3       29.82F FOG
FRONT ROYAL*   CLOUDY    59  59 100 S3        29.81F
LURAY*         HVY RAIN  59  59 100 S3        29.83F
$$

VAZ048-049-060>072-079>083-031000-
CENTRAL AND SOUTH CENTRAL VIRGINIA

CITY           SKY/WX    TMP DP  RH WIND       PRES   REMARKS
RICHMOND       LGT RAIN  64  64 100 SW6       29.81S
CHESTERFIELD*  CLOUDY    64  54  68 SW5       29.84R
PETERSBURG*    LGT RAIN  66  66 100 SW5       29.84R
HANOVER        LGT RAIN  64  63  96 SW6       29.82S
TAPPAHANNOCK*  RAIN      66  66 100 SW6       29.81S
QUINTON*       CLOUDY    65  64  99 MISG      29.81R
CHARLOTTSVILLE CLOUDY    62  60  93 CALM      29.81F
GORDONSVILLE*  CLOUDY    61  61 100 CALM      29.81S
ORANGE*        FAIR      63  63 100 CALM      29.82F
LOUISA*        DRIZZLE   64  64 100 SW3       29.80F
BUMPASS*       CLOUDY    62  62  99 W3        29.81S
FARMVILLE*     DRIZZLE   63  63 100 S3        29.82R
CREWE*         CLOUDY    64  64 100 CALM      29.83S
FORT PICKETT*  NOT AVBL
CHASE CITY*    CLOUDY    63  62  94 CALM      29.83F
CLARKSVILLE*   CLOUDY    63  63 100 S5        29.83F
SOUTH HILL*    CLOUDY    64  64  99 CALM      29.87F
LAWRENCEVILLE* CLOUDY    64  64 100 CALM      29.84S
EMPORIA*       RAIN      64  64 100 SW3       29.86R
$$

VAZ088>098-031000-
SOUTHEAST VIRGINIA

CITY           SKY/WX    TMP DP  RH WIND       PRES   REMARKS
NORFOLK        CLOUDY    68  63  84 SW8       29.82F
VIRGINIA BEACH CLOUDY    71  63  75 S8        29.82F
NORFOLK NAVAL  CLOUDY    68  64  87 S7        29.84F
WEST POINT*    CLOUDY    65  64  97 S3        29.83S
SALUDA*        CLOUDY    64  64 100 S5        29.81F
NEWPORT NEWS   LGT RAIN  67  66  97 S6        29.82S FOG
LANGLEY AFB    LGT RAIN  68  64  88 S9        29.82R FOG
FORT EUSTIS    LGT RAIN  67  67 100 S3        29.81S
WILLIAMSBURG*  FAIR      66  66 100 S5        29.83S
HR EXEC AP*      N/A     66  63  88 S7        29.85S
FRANKLIN*      CLOUDY    66  64  92 S3        29.84S
US460-WAKEFLD  LGT RAIN  67  64  90 CALM      29.83S FOG
$$

VAZ020-022-025-037-045-031000-
WEST CENTRAL AND SOUTHWEST VIRGINIA

CITY           SKY/WX    TMP DP  RH WIND       PRES   REMARKS
STAUNTON*      CLOUDY   N/A N/A N/A CALM      29.85F HAZE
WAYNESBORO*    CLOUDY    59  58  95 CALM      29.84F
HOT SPRINGS VA MOCLDY    53  53 100 W9        29.88S
LYNCHBURG      LGT RAIN  60  59  96 SW3       29.86R
DANVILLE       LGT RAIN  62  61  96 SW7       29.85R
SOUTH BOSTON*  CLOUDY    63  61  95 SW3       29.84S
MARTINSVILLE   DRIZZLE   57  57 100 CALM      29.89S
ROANOKE        LGT RAIN  60  59  96 CALM      29.87S
BLACKSBURG     RAIN      57  56  97 CALM      29.90F
DUBLIN*        CLOUDY    58  58 100 SW3       29.89F
MARION*        RAIN      57  55  95 SW5       29.92F
HILLSVILLE*    CLOUDY    55  55 100 SW3       29.89S
RICHLANDS*     LGT RAIN  55  54  96 W6        29.91R
WISE*          DRIZZLE   55  55 100 CALM      29.91S
ABINGDON*      CLOUDY    59  59  99 CALM      29.90R
$$

MDZ021>025-VAZ099-100-031000-
SOUTHERN MARYLAND AND THE DELMARVA PENINSULA

CITY           SKY/WX    TMP DP  RH WIND       PRES   REMARKS
PATUXENT RIVER CLOUDY    65  62  90 CALM      29.79S
BAY BRIDGE APT NOT AVBL
LEONARDTOWN    CLOUDY    63  61  94 SW6       29.81S
DOVER          DRIZZLE   59  59 100 E5        29.78S
GEORGETOWN     LGT RAIN  63  62  97 S5        29.80S
EASTON         RAIN     N/A N/A N/A NW3       29.82S
CAMBRIDGE        N/A     63  63 100 S6        29.79S
SALISBURY      LGT RAIN  64  63  96 S7        29.81S
OCEAN CITY     LGT RAIN  58  58 100 S5        29.82F
WALLOPS ISLAND RAIN      65  63  93 SW5       29.82S FOG
ACCOMACK*      CLOUDY    63  59  88 CALM      29.82F FOG
$$

NCZ012>017-030>032-031000-
NORTH CENTRAL AND EASTERN NORTH CAROLINA

CITY           SKY/WX    TMP DP  RH WIND       PRES   REMARKS
ROANOKE RAPIDS DRIZZLE   64  63  94 CALM      29.85S
RALEIGH        LGT RAIN  65  63  93 CALM      29.86F
ELIZABETH CITY CLOUDY    69  67  93 W5        29.86R
AHOSKIE*       CLOUDY    65  64  96 S5        29.85F
EDENTON*       CLOUDY    71  71 100 CALM      29.87S
CURRITUCK*     CLOUDY    69  68  94 W3        29.87R
KILL DEVIL HLS CLOUDY    73  69  88 SW6       29.86R
MANTEO         NOT AVBL
CAPE HATTERAS  CLOUDY    71  69  93 SW10G18   29.88S
TARBORO*       CLOUDY    67  65  92 CALM      29.86F
GOLDSBORO      TSTM      70  70 100 W13       29.84F
WASHINGTON     DRIZZLE   69  68  95 SW6       29.86S
GREENVILLE     CLOUDY    68  68 100 CALM      29.89S
NEW BERN       LGT RAIN  72  68  87 SW8       29.88R
WILMINGTON     CLOUDY    73  65  75 S9        29.87F
$$

VAZ048-031000-
ELSEWHERE

CITY           SKY/WX    TMP DP  RH WIND       PRES   REMARKS
HARRISBURG PA  LGT RAIN  57  55  93 NE6       29.81S FOG
BALTIMORE      LGT RAIN  59  58  96 E3        29.79F FOG
ANNAPOLIS      LGT RAIN  59  58  96 N5        29.79F
ANDREWS AFB    LGT RAIN  63  61  94 N3        29.79S FOG
PHILADELPHIA   RAIN      57  53  86 NE7       29.83F FOG
HENDERSON NC   LGT RAIN N/A N/A N/A SW5       29.85F
GREENSBORO     RAIN      63  63 100 SW3       29.84F FOG
ROCKY MOUNT    CLOUDY    68  66  93 E3        29.84F
$$

VAZ100-031000-
MARINE

STATION/POSITION TIME  TEMP    WIND        PRES    WAVE   SWELL
                       AIR SEA DIR/SP/G            HT/PER HT/PER
                 (UTC) (F)     (DEG/KT/KT) (MB)    (FT/S) (FT/S)
BRANDYWINE LGT   0800   56      60/  8/  8 1009.2F
CAPE MAY NJ      0800   57 58   70/  5/  8 1008.7F
LEWES DE         0800   59 56  170/  6/  9 1009.2F
15NM E FENWICK I 0850   55 52              1009.6F   3/ 5
OCEAN-CITY-INLET 0800   57 57  150/  5/  6 1009.3R
WACHAPREAGUE VA  0800   64 65  230/  3/  6 1009.7S
THOMAS POINT MD  0900   58 58   10/  8/  9 1010.0F
GOOSES REEF MD   0900   62 59  220/  4/  4 1009.7F   0
COVE POINT MD    0800   65     250/  8/ 10 1009.2F
SOLOMONS ISLAND  0800   64 61  230/  4/  5   N/A
BISHOPS HEAD MD  0800   64 63  190/  7/  8 1008.8S
PINEY POINT MD   0800          250/  2/  3   N/A
POTOMAC MD       0800   63 60  250/  6/  6 1008.5R   0
CAMBRIDGE MD     0800   65 60  210/  3/  5 1007.9F
LEWISETTA VA     0800   65 62  230/  6/  7 1009.0F
RAPPAHANNOCK LGT 0800          190/  6/ 11 1010.4F
STINGRAY PT      0800   64 62  170/  6/  8 1010.1F   0
YORK RVR RNG VA  0800   66     190/  7/  7 1009.2F
YORKTOWN VA      0800   67 64  200/  4/  5 1009.5F
JAMESTOWN VA     0800   66 67  240/  2/  6   N/A     0
DOMINION TERM VA 0800   67     210/  6/  7 1009.9F
KIPTOPEKE VA     0800      63  160/  4/  5   N/A
CHES BAY BRIDGE  0800   67 62  190/  8/  9 1009.8F
CAPE HENRY VA    0800   67     190/  5/  6   N/A
CHESAPEAKE LGHT  0800   68     240/  8/  8 1011.4F
WILLOUBY STN VA  0800   67     220/  8/  9 1011.0F
CAPE HENRY BUOY  0812      59                N/A     3/ 6
CAPE CHARLES BUO 0826      58                N/A     2/10   2/10
OFFSHORE WE BUOY 0821      56                N/A     3/ 6   3/ 6
64NM E OF VA BCH 0850   58 54  260/  8/ 12 1010.9R   3/ 5   3/ 5
DUCK PIER NC     0800   71 66  220/  7/ 10 1010.4R
44100 DUCK FRF   0824      62                N/A     3/10   2/11
44056 DUCK FRF   0811      57                N/A     2/11
OREGON INLET NC  0800   71 72  200/ 16/ 19 1011.1R
HATTERAS NC      0800   72 70  210/ 13/ 16 1011.5F
DIAMOND SHLS NC  0850   75 73  210/ 19/ 23 1011.3F   4/ 5   2/10
CAPE LOOKOUT NC  0800   71     200/ 11/ 15 1011.6F
$$




USA.gov is the U.S. government's official web portal to all federal, state and local government web resources and services.